This is the latest recevied weather packets stored in our database for station/object DO7ZT-13. If no packets are shown the sender has not sent any weather packets the latest 1 day(s).
| Time | Temp. | Humidity | Pressure | Rain* | Wind** | Luminosity | Snow |
|---|---|---|---|---|---|---|---|
| 1778034613 | 12.22° C | 99% | 1005.2 hPa | 0 mm | 0.45 m/s, 192° | - | - |
| 1778034338 | 12.22° C | 99% | 1005.2 hPa | 0 mm | 0.45 m/s, 174° | - | - |
| 1778034026 | 12.22° C | 99% | 1005.2 hPa | 0 mm | 0 m/s | - | - |
| 1778033713 | 12.22° C | 98% | 1005.1 hPa | 0 mm | 0 m/s | - | - |
| 1778033425 | 11.11° C | 98% | 1005.1 hPa | 0 mm | 0.45 m/s, 132° | - | - |
| 1778033113 | 11.11° C | 98% | 1005.1 hPa | 0.51 mm | 0 m/s | - | - |
| 1778032513 | 12.22° C | 97% | 1005.1 hPa | 0.51 mm | 0.45 m/s, 114° | - | - |
| 1778032225 | 12.22° C | 97% | 1005.1 hPa | 0.51 mm | 0.45 m/s, 126° | - | - |
| 1778031913 | 12.22° C | 97% | 1005.1 hPa | 0.51 mm | 0.45 m/s, 126° | - | - |
| 1778031626 | 12.22° C | 97% | 1005.1 hPa | 1.02 mm | 0.89 m/s, 108° | - | - |
| 1778031313 | 12.22° C | 97% | 1005.1 hPa | 1.27 mm | 0.89 m/s, 138° | - | - |
| 1778031026 | 12.22° C | 96% | 1005.2 hPa | 1.27 mm | 0.89 m/s, 144° | - | - |
| 1778030713 | 12.22° C | 96% | 1005.2 hPa | 1.27 mm | 0.89 m/s, 138° | - | - |
| 1778030426 | 12.22° C | 96% | 1005.2 hPa | 1.78 mm | 0.45 m/s, 140° | - | - |
| 1778030113 | 12.22° C | 95% | 1005.2 hPa | 2.03 mm | 0.45 m/s, 126° | - | - |
| 1778029826 | 12.22° C | 96% | 1005.2 hPa | 2.54 mm | 0.45 m/s, 138° | - | - |
| 1778029513 | 12.22° C | 95% | 1005.2 hPa | 2.03 mm | 0.89 m/s, 138° | - | - |
| 1778029226 | 12.22° C | 95% | 1005.3 hPa | 2.03 mm | 0.89 m/s, 132° | - | - |
| 1778028913 | 12.22° C | 95% | 1005.3 hPa | 2.54 mm | 0.45 m/s, 120° | - | - |
| 1778027113 | 12.22° C | 98% | 1005.6 hPa | 1.27 mm | 0.45 m/s, 60° | - | - |
| 1778026838 | 12.22° C | 98% | 1005.6 hPa | 1.02 mm | 0.45 m/s, 54° | - | - |
| 1778026525 | 12.22° C | 98% | 1006.2 hPa | 1.27 mm | 0 m/s | - | - |
| 1778026213 | 12.22° C | 98% | 1006.2 hPa | 2.03 mm | 0.45 m/s, 120° | - | - |
| 1778022613 | 12.78° C | 94% | 1007.3 hPa | 4.06 mm | 0.45 m/s, 276° | - | - |
| 1778020525 | 13.89° C | 86% | 1006.5 hPa | 0 mm | 0 m/s | - | - |
* Rain latest hour (hover to see other rain measurements)
** Current wind speed in m/s (hover to see current wind gust speed)